Content
SEND FEEDBACK

Daily
Averages
Monthly
Summary
United Kingdom

BECK ROW, ENGLAND


Home > Europe > United Kingdom > England
Elevation: 33 feet     Latitude: 52 22N     Longitude: 000 28E

WEATHER
 
SELECT A DAY
Number of Records: 167,804;   Date Range: 8/10/96 - 8/25/14
 
SHARE

PRINT THIS DATA

[ ← Previous Day ]
WEATHER ALMANAC - SEPTEMBER 25, 2013
[ Next Day → ]
[ °C ]   °F
Weather ElementAverageHighLow
Temperature58.9 °F68 °F (3:48 pm)54.9 °F (3:58 am)
Dewpoint53.5 °F55.8 °F (8:58 am)51.8 °F (11:58 am)
Humidity83.9 %96 % (3:58 am)56 % (3:48 pm)
Barometer29.88 in29.94 in (1:58 am)29.84 in (2:06 pm)
Wind Speed3 mph6.9 mph (6:58 pm)
Weather ElementAverage
Visibility4.5 mi
Wind DirectionS (185.2 °)

Weather ElementTotal
Precipitation---
Heating Degree Days3.6 (Base 65)
Growing Degree Days11.5 (Base 50)
Averaged from 77 records on September 25, 2013
WEATHER CONDITIONS BREAKOUT
WIND DIRECTION BREAKOUT
WEATHER BY HOUR - SEPTEMBER 25, 2013
[ °C ]   °F
Local TimeTemperatureDewpointHumidityBarometerVisibilityWind DirectionWind SpeedGust SpeedPrecipitationEventsConditions
1:17 AM55.4 °F53.6 °F94 %29.93 in3.7 miESE (110°)1.2 mphClear
1:36 AM55.4 °F53.6 °F94 %29.93 in3.7 miCalmMostly Cloudy
1:58 AM55.4 °F54.0 °F95 %29.94 in3.7 miWSW (250°)2.3 mphOvercast
2:06 AM55.4 °F53.6 °F94 %29.92 in3.1 miWSW (240°)1.2 mphOvercast
2:17 AM55.4 °F53.6 °F94 %29.92 in3.1 miSW (220°)2.3 mphOvercast
2:51 AM55.4 °F53.6 °F94 %29.91 in3.7 miSE (130°)3.5 mphMostly Cloudy
2:58 AM55.0 °F53.6 °F95 %29.91 in3.7 miSE (140°)3.5 mphScattered Clouds
3:01 AM55.4 °F53.6 °F94 %29.90 in3.7 miSSE (150°)4.6 mphPartly Cloudy
3:26 AM55.4 °F53.6 °F94 %29.90 in3.7 miSouth (180°)3.5 mphPartly Cloudy
3:43 AM55.4 °F53.6 °F94 %29.90 in3.7 miEast (90°)2.3 mphMostly Cloudy
3:58 AM54.9 °F53.6 °F96 %29.91 in3.7 miEast (90°)2.3 mphScattered Clouds
4:13 AM55.4 °F53.6 °F94 %29.89 in5.0 miCalmPartly Cloudy
4:17 AM55.4 °F53.6 °F94 %29.89 in5.0 miENE (70°)1.2 mphPartly Cloudy
4:22 AM55.4 °F53.6 °F94 %29.89 in5.0 miEast (90°)1.2 mphPartly Cloudy
4:23 AM55.4 °F53.6 °F94 %29.89 in5.0 miEast (80°)1.2 mphPartly Cloudy
4:26 AM55.4 °F53.6 °F94 %29.89 in5.0 miENE (70°)2.3 mphClear
4:58 AM54.9 °F53.4 °F95 %29.90 in5.6 miCalmPartly Cloudy
5:08 AM55.4 °F53.6 °F94 %29.89 in5.0 miWSW (240°)1.2 mphScattered Clouds
5:31 AM55.4 °F53.6 °F94 %29.88 in5.0 miSSE (150°)2.3 mphScattered Clouds
5:58 AM55.2 °F53.8 °F95 %29.89 in5.0 miCalmMostly Cloudy
6:10 AM55.4 °F53.6 °F94 %29.89 in5.6 miNNW (330°)2.3 mphOvercast
6:21 AM55.4 °F53.6 °F94 %29.88 in5.0 miCalmOvercast
6:26 AM55.4 °F53.6 °F94 %29.88 in5.0 miNW (320°)2.3 mphOvercast
6:31 AM55.4 °F53.6 °F94 %29.88 in3.7 miNNW (330°)2.3 mphOvercast
6:40 AM55.4 °F53.6 °F94 %29.89 in3.7 miNW (320°)2.3 mphOvercast
6:48 AM55.4 °F53.6 °F94 %29.89 in2.5 miNNW (340°)1.2 mphOvercast
6:58 AM55.4 °F53.8 °F94 %29.89 in2.5 miCalmOvercast
7:04 AM55.4 °F53.6 °F94 %29.88 in3.1 miCalmMostly Cloudy
7:21 AM55.4 °F53.6 °F94 %29.88 in2.5 miSE (130°)2.3 mphMostly Cloudy
7:23 AM55.4 °F53.6 °F94 %29.88 in2.5 miESE (120°)2.3 mphMostly Cloudy
7:25 AM55.4 °F53.6 °F94 %29.88 in3.1 miESE (110°)2.3 mphScattered Clouds
7:28 AM55.4 °F53.6 °F94 %29.88 in2.5 miEast (100°)3.5 mphScattered Clouds
7:44 AM55.4 °F53.6 °F94 %29.88 in3.1 miEast (100°)2.3 mphClear
7:58 AM54.9 °F53.6 °F96 %29.89 in3.1 miSE (130°)2.3 mphClear
8:14 AM55.4 °F53.6 °F94 %29.86 in2.5 miEast (100°)5.8 mphClear
8:31 AM55.4 °F53.6 °F94 %29.86 in3.1 miSE (140°)3.5 mphClear
8:58 AM57.2 °F55.8 °F95 %29.88 in3.7 miSE (140°)2.3 mphClear
9:58 AM61.9 °F55.0 °F78 %29.87 in5.0 miVariable4.6 mphHaze
10:58 AM62.2 °F53.1 °F72 %29.88 in6.2 miSSE (160°)2.3 mphHaze
11:58 AM63.3 °F51.8 °F66 %29.87 in6.2 miCalmPartly Cloudy
12:22 PM64.4 °F53.6 °F68 %29.86 in6.2 miVariable2.3 mphMostly Cloudy
12:35 PM66.2 °F53.6 °F64 %29.86 in6.2 miVariable2.3 mphMostly Cloudy
12:52 PM66.2 °F51.8 °F60 %29.86 in6.2 miSSW (210°)4.6 mphScattered Clouds
12:58 PM65.5 °F52.7 °F63 %29.87 in6.2 miSouth (180°)3.5 mphScattered Clouds
1:58 PM65.8 °F52.5 °F62 %29.85 in6.2 miWest (270°)2.3 mphPartly Cloudy
2:06 PM66.2 °F51.8 °F60 %29.84 in6.2 miVariable3.5 mphMostly Cloudy
2:11 PM66.2 °F51.8 °F60 %29.84 in6.2 miNNW (330°)3.5 mphMostly Cloudy
2:19 PM66.2 °F51.8 °F60 %29.84 in6.2 miVariable1.2 mphMostly Cloudy
2:32 PM66.2 °F51.8 °F60 %29.84 in6.2 miWSW (240°)2.3 mphMostly Cloudy
2:58 PM67.5 °F52.3 °F58 %29.85 in6.2 miWSW (250°)2.3 mphMostly Cloudy
3:02 PM66.2 °F51.8 °F60 %29.84 in6.2 miWest (280°)2.3 mphScattered Clouds
3:48 PM68.0 °F51.8 °F56 %29.84 in6.2 miWest (270°)4.6 mphMostly Cloudy
3:56 PM66.2 °F51.8 °F60 %29.84 in6.2 miWNW (300°)3.5 mphMostly Cloudy
3:58 PM66.9 °F52.0 °F59 %29.85 in6.2 miWNW (290°)3.5 mphMostly Cloudy
4:01 PM66.2 °F51.8 °F60 %29.84 in6.2 miWNW (300°)3.5 mphMostly Cloudy
4:06 PM66.2 °F51.8 °F60 %29.84 in6.2 miWest (270°)2.3 mphMostly Cloudy
4:58 PM66.6 °F52.0 °F59 %29.84 in6.2 miNW (320°)5.8 mphPartly Cloudy
5:58 PM65.5 °F53.4 °F65 %29.85 in6.2 miNNW (340°)5.8 mphPartly Cloudy
6:58 PM61.7 °F55.2 °F79 %29.87 in5.0 miNorth (360°)6.9 mphHaze
7:58 PM59.9 °F54.7 °F83 %29.88 in5.6 miNorth (10°)5.8 mphHaze
8:00 PM60.8 °F55.4 °F82 %29.87 in5.6 miNorth (10°)4.6 mphHaze
8:16 PM59.0 °F53.6 °F82 %29.87 in5.6 miNorth (10°)6.9 mphHaze
8:34 PM59.0 °F53.6 °F82 %29.88 in5.0 miNorth (360°)4.6 mphHaze
8:58 PM58.3 °F54.1 °F86 %29.90 in5.0 miNNW (340°)3.5 mphHaze
9:26 PM57.2 °F53.6 °F88 %29.89 in3.7 miNorth (360°)3.5 mphClear
9:57 PM57.2 °F53.6 °F88 %29.90 in3.1 miNorth (360°)3.5 mphMostly Cloudy
9:58 PM57.0 °F54.0 °F89 %29.91 in3.1 miNorth (350°)3.5 mphMostly Cloudy
10:01 PM57.2 °F53.6 °F88 %29.90 in3.1 miNNW (330°)3.5 mphMostly Cloudy
10:10 PM57.2 °F55.4 °F94 %29.90 in3.1 miNNW (340°)5.8 mphScattered Clouds
10:11 PM57.2 °F55.4 °F94 %29.90 in3.1 miNNW (340°)5.8 mphMostly Cloudy
10:20 PM57.2 °F55.4 °F94 %29.91 in3.1 miNNW (340°)4.6 mphMostly Cloudy
10:50 PM57.2 °F55.4 °F94 %29.91 in3.1 miNorth (350°)5.8 mphOvercast
10:58 PM57.7 °F54.9 °F90 %29.92 in3.7 miNorth (350°)4.6 mphOvercast
11:29 PM57.2 °F53.6 °F88 %29.91 in3.7 miNNW (330°)3.5 mphOvercast
11:49 PM57.2 °F53.6 °F88 %29.92 in3.7 miNorth (350°)5.8 mphOvercast
11:52 PM57.2 °F53.6 °F88 %29.92 in3.7 miNorth (350°)4.6 mphOvercast
11:58 PM57.7 °F54.5 °F89 %29.93 in3.7 miVariable4.6 mphOvercast
Hourly data recorded from EGUN, located miles away from Beck Row, England







STORIES FROM OUR PARTNERS